When you browse on this site, cookies collect data to enhance your experience and personalize the content and advertising you see.
Visit our Privacy Policy to learn more. By continuing to use the site, you agree to this use of cookies and data.

Hourly Weather Barisal

Today, 9 August, Sunday

Time Temperature Precipitation Wind Pressure Humidity
00:00 +30°C° 0 mm 1 mps 750 mmHg 88%
01:00 +30°C° 0 mm 1 mps 750 mmHg 88%
02:00 +30°C° 0 mm 2 mps 749 mmHg 89%
03:00 +30°C° 0 mm 2 mps 749 mmHg 89%
04:00 +30°C° 0.4 mm 2 mps 749 mmHg 88%
05:00 +30°C° 0.4 mm 2 mps 749 mmHg 88%
06:00 +30°C° 0 mm 1 mps 750 mmHg 90%
07:00 +30°C° 0.5 mm 2 mps 750 mmHg 86%
08:00 +31°C° 0.5 mm 3 mps 750 mmHg 81%
09:00 +33°C° 0.5 mm 4 mps 750 mmHg 76%
10:00 +34°C° 1.1 mm 5 mps 750 mmHg 75%
11:00 +34°C° 1.1 mm 6 mps 750 mmHg 73%
12:00 +35°C° 1.1 mm 6 mps 750 mmHg 72%
13:00 +35°C° 0.7 mm 6 mps 749 mmHg 71%
14:00 +35°C° 0.7 mm 6 mps 749 mmHg 70%
15:00 +35°C° 0.7 mm 6 mps 748 mmHg 69%
16:00 +34°C° 0 mm 6 mps 748 mmHg 71%
17:00 +33°C° 0 mm 6 mps 748 mmHg 74%
18:00 +33°C° 0 mm 5 mps 748 mmHg 76%
19:00 +32°C° 0 mm 5 mps 749 mmHg 79%
20:00 +32°C° 0 mm 4 mps 749 mmHg 81%
21:00 +32°C° 0 mm 4 mps 750 mmHg 83%
22:00 +30°C° 0.1 mm 4 mps 750 mmHg 83%
23:00 +30°C° 0.1 mm 4 mps 750 mmHg 84%

Tomorrow, 10 August, Monday

Time Temperature Precipitation Wind Pressure Humidity
00:00 +30°C° 0.1 mm 4 mps 750 mmHg 84%
01:00 +30°C° 0.4 mm 4 mps 750 mmHg 85%
02:00 +30°C° 0.4 mm 3 mps 750 mmHg 86%
03:00 +30°C° 0.4 mm 3 mps 750 mmHg 86%
04:00 +30°C° 0.3 mm 3 mps 750 mmHg 87%
05:00 +30°C° 0.3 mm 3 mps 750 mmHg 87%
06:00 +29°C° 0.3 mm 3 mps 750 mmHg 87%
07:00 +30°C° 0.2 mm 4 mps 750 mmHg 83%
08:00 +32°C° 0.2 mm 5 mps 750 mmHg 79%
09:00 +33°C° 0.2 mm 5 mps 751 mmHg 75%
10:00 +34°C° 0.7 mm 6 mps 751 mmHg 73%
11:00 +34°C° 0.7 mm 7 mps 750 mmHg 71%
12:00 +35°C° 0.7 mm 7 mps 750 mmHg 70%
13:00 +35°C° 1 mm 7 mps 750 mmHg 69%
14:00 +35°C° 1 mm 7 mps 749 mmHg 69%
15:00 +35°C° 1 mm 7 mps 749 mmHg 69%
16:00 +34°C° 0.1 mm 6 mps 749 mmHg 72%
17:00 +34°C° 0.1 mm 6 mps 748 mmHg 75%
18:00 +33°C° 0.1 mm 5 mps 748 mmHg 77%
19:00 +32°C° 0 mm 5 mps 749 mmHg 80%
20:00 +32°C° 0 mm 5 mps 749 mmHg 82%
21:00 +32°C° 0 mm 4 mps 750 mmHg 84%
22:00 +32°C° 0 mm 4 mps 750 mmHg 84%
23:00 +30°C° 0 mm 4 mps 750 mmHg 85%

Day after tomorrow, 11 August, Tuesday

Time Temperature Precipitation Wind Pressure Humidity
00:00 +30°C° 0 mm 3 mps 750 mmHg 86%
01:00 +30°C° 0.1 mm 3 mps 750 mmHg 86%
02:00 +30°C° 0.1 mm 3 mps 749 mmHg 86%
03:00 +30°C° 0.1 mm 3 mps 749 mmHg 86%
04:00 +30°C° 0.3 mm 3 mps 749 mmHg 86%
05:00 +30°C° 0.3 mm 3 mps 749 mmHg 87%
06:00 +30°C° 0.3 mm 2 mps 749 mmHg 88%
07:00 +31°C° 1.3 mm 3 mps 750 mmHg 84%
08:00 +31°C° 1.3 mm 3 mps 750 mmHg 79%
09:00 +33°C° 1.3 mm 4 mps 750 mmHg 74%
10:00 +33°C° 0.7 mm 4 mps 750 mmHg 74%
11:00 +33°C° 0.7 mm 5 mps 750 mmHg 74%
12:00 +33°C° 0.7 mm 5 mps 750 mmHg 74%
13:00 +33°C° 0.1 mm 5 mps 749 mmHg 75%
14:00 +33°C° 0.1 mm 5 mps 749 mmHg 75%
15:00 +33°C° 0.1 mm 5 mps 748 mmHg 75%
16:00 +33°C° 0 mm 5 mps 748 mmHg 76%
17:00 +33°C° 0 mm 5 mps 748 mmHg 77%
18:00 +32°C° 0 mm 4 mps 748 mmHg 78%
19:00 +32°C° 0 mm 4 mps 749 mmHg 81%
20:00 +32°C° 0 mm 4 mps 750 mmHg 83%
21:00 +30°C° 0 mm 4 mps 750 mmHg 86%
22:00 +30°C° 0 mm 4 mps 750 mmHg 86%
23:00 +30°C° 0 mm 3 mps 750 mmHg 87%

12 August, Wednesday

Time Temperature Precipitation Wind Pressure Humidity
00:00 +30°C° 0 mm 3 mps 750 mmHg 87%
01:00 +30°C° 0.1 mm 3 mps 750 mmHg 87%
02:00 +30°C° 0.1 mm 3 mps 749 mmHg 87%
03:00 +29°C° 0.1 mm 4 mps 749 mmHg 87%
04:00 +29°C° 0 mm 3 mps 749 mmHg 88%
05:00 +29°C° 0 mm 3 mps 749 mmHg 89%
06:00 +29°C° 0 mm 2 mps 749 mmHg 89%
07:00 +30°C° 0.1 mm 3 mps 749 mmHg 84%
08:00 +33°C° 0.1 mm 4 mps 750 mmHg 79%
09:00 +34°C° 0.1 mm 4 mps 750 mmHg 73%
10:00 +34°C° 0.4 mm 5 mps 750 mmHg 71%
11:00 +35°C° 0.4 mm 5 mps 750 mmHg 68%
12:00 +36°C° 0.4 mm 6 mps 749 mmHg 66%
13:00 +36°C° 0.3 mm 5 mps 749 mmHg 66%
14:00 +36°C° 0.3 mm 5 mps 748 mmHg 65%
15:00 +36°C° 0.3 mm 5 mps 748 mmHg 65%
16:00 +35°C° 0.1 mm 5 mps 748 mmHg 68%
17:00 +34°C° 0.1 mm 4 mps 747 mmHg 70%
18:00 +33°C° 0.1 mm 4 mps 747 mmHg 73%
19:00 +33°C° 0 mm 4 mps 748 mmHg 76%
20:00 +32°C° 0 mm 4 mps 749 mmHg 78%
21:00 +31°C° 0 mm 3 mps 750 mmHg 81%
22:00 +31°C° 0 mm 3 mps 749 mmHg 82%
23:00 +30°C° 0 mm 3 mps 749 mmHg 83%

13 August, Thursday

Time Temperature Precipitation Wind Pressure Humidity
00:00 +30°C° 0 mm 3 mps 749 mmHg 84%
01:00 +30°C° 0.2 mm 3 mps 749 mmHg 85%
02:00 +30°C° 0.2 mm 3 mps 749 mmHg 86%
03:00 +30°C° 0.2 mm 3 mps 748 mmHg 87%
04:00 +30°C° 0.5 mm 3 mps 748 mmHg 87%
05:00 +30°C° 0.5 mm 3 mps 748 mmHg 87%
06:00 +30°C° 0.5 mm 3 mps 748 mmHg 87%
07:00 +31°C° 0 mm 3 mps 748 mmHg 81%
08:00 +33°C° 0 mm 4 mps 749 mmHg 75%
09:00 +34°C° 0 mm 5 mps 749 mmHg 70%
10:00 +35°C° 0.2 mm 5 mps 749 mmHg 67%
11:00 +36°C° 0.2 mm 6 mps 749 mmHg 65%
12:00 +36°C° 0.2 mm 7 mps 749 mmHg 63%
13:00 +36°C° 0 mm 7 mps 748 mmHg 63%
14:00 +36°C° 0 mm 7 mps 747 mmHg 63%
15:00 +36°C° 0 mm 7 mps 747 mmHg 64%
16:00 +35°C° 0 mm 6 mps 747 mmHg 67%
17:00 +34°C° 0 mm 6 mps 747 mmHg 71%
18:00 +33°C° 0 mm 5 mps 747 mmHg 74%
19:00 +33°C° 0 mm 5 mps 747 mmHg 77%
20:00 +32°C° 0 mm 5 mps 748 mmHg 79%
21:00 +32°C° 0 mm 5 mps 748 mmHg 81%
22:00 +32°C° 0 mm 4 mps 748 mmHg 82%
23:00 +32°C° 0 mm 4 mps 748 mmHg 83%

14 August, Friday

Time Temperature Precipitation Wind Pressure Humidity
00:00 +32°C° 0 mm 4 mps 748 mmHg 84%
01:00 +30°C° 0.1 mm 4 mps 748 mmHg 84%
02:00 +30°C° 0.1 mm 4 mps 748 mmHg 85%
03:00 +30°C° 0.1 mm 4 mps 747 mmHg 86%
04:00 +30°C° 0 mm 4 mps 747 mmHg 85%
05:00 +30°C° 0 mm 3 mps 747 mmHg 85%
06:00 +30°C° 0 mm 3 mps 747 mmHg 85%
07:00 +32°C° 0.5 mm 4 mps 748 mmHg 79%
08:00 +33°C° 0.5 mm 5 mps 748 mmHg 74%
09:00 +34°C° 0.5 mm 6 mps 749 mmHg 68%
10:00 +35°C° 0.1 mm 6 mps 748 mmHg 67%
11:00 +35°C° 0.1 mm 7 mps 748 mmHg 66%
12:00 +35°C° 0.1 mm 7 mps 748 mmHg 65%
13:00 +35°C° 0.1 mm 7 mps 747 mmHg 65%
14:00 +35°C° 0.1 mm 7 mps 747 mmHg 66%
15:00 +35°C° 0.1 mm 6 mps 746 mmHg 66%
16:00 +34°C° 0 mm 6 mps 746 mmHg 69%
17:00 +34°C° 0 mm 5 mps 746 mmHg 71%
18:00 +33°C° 0 mm 5 mps 746 mmHg 73%
19:00 +33°C° 0 mm 4 mps 747 mmHg 76%
20:00 +32°C° 0 mm 4 mps 748 mmHg 79%
21:00 +32°C° 0 mm 4 mps 748 mmHg 82%
22:00 +31°C° 0.2 mm 3 mps 748 mmHg 82%
23:00 +31°C° 0.2 mm 3 mps 748 mmHg 83%
Show more